TimeAST,TemperatureF,Dew PointF,Humidity,Sea Level PressureIn,VisibilityMPH,Wind Direction,Wind SpeedMPH,Gust SpeedMPH,PrecipitationIn,Events,Conditions,WindDirDegrees,DateUTC
12:56 AM,78.1,73.9,87,29.87,10.0,Calm,Calm,-,N/A,,Scattered Clouds,0,2012-11-22 04:56:00
1:56 AM,78.1,73.9,87,29.86,10.0,Calm,Calm,-,N/A,,Scattered Clouds,0,2012-11-22 05:56:00
2:56 AM,78.1,73.9,87,29.84,10.0,SSW,3.5,-,N/A,,Scattered Clouds,210,2012-11-22 06:56:00
3:56 AM,78.1,73.9,87,29.84,10.0,SW,4.6,-,N/A,,Scattered Clouds,230,2012-11-22 07:56:00
4:56 AM,77.0,73.0,88,29.85,10.0,Calm,Calm,-,N/A,,Scattered Clouds,0,2012-11-22 08:56:00
5:56 AM,77.0,73.0,88,29.86,10.0,Calm,Calm,-,N/A,,Scattered Clouds,0,2012-11-22 09:56:00
6:56 AM,77.0,73.0,88,29.87,10.0,Calm,Calm,-,N/A,,Scattered Clouds,0,2012-11-22 10:56:00
7:56 AM,79.0,73.9,84,29.89,10.0,Calm,Calm,-,N/A,,Scattered Clouds,0,2012-11-22 11:56:00
8:56 AM,82.0,73.9,76,29.92,10.0,Calm,Calm,-,N/A,,Scattered Clouds,0,2012-11-22 12:56:00
9:56 AM,84.0,75.0,74,29.93,10.0,Calm,Calm,-,N/A,,Scattered Clouds,0,2012-11-22 13:56:00
10:56 AM,84.9,75.9,74,29.92,10.0,NNE,6.9,-,N/A,,Scattered Clouds,20,2012-11-22 14:56:00
11:56 AM,86.0,75.9,72,29.90,10.0,North,9.2,-,N/A,,Scattered Clouds,10,2012-11-22 15:56:00
12:56 PM,86.0,75.0,70,29.88,10.0,NNE,9.2,-,N/A,,Partly Cloudy,30,2012-11-22 16:56:00
1:56 PM,84.9,75.0,72,29.85,10.0,NE,10.4,-,N/A,,Scattered Clouds,40,2012-11-22 17:56:00
2:56 PM,80.1,77.0,90,29.86,4.0,Calm,Calm,-,0.23,Rain,Heavy Rain,0,2012-11-22 18:56:00
3:56 PM,81.0,77.0,88,29.86,7.0,NNE,5.8,-,0.13,Rain,Light Rain,20,2012-11-22 19:56:00
4:56 PM,81.0,78.1,91,29.86,10.0,Calm,Calm,-,0.02,Rain,Light Rain,0,2012-11-22 20:56:00
5:56 PM,81.0,77.0,88,29.87,10.0,Calm,Calm,-,0.00,,Mostly Cloudy,0,2012-11-22 21:56:00
6:56 PM,81.0,78.1,91,29.89,9.0,Calm,Calm,-,0.00,Rain,Light Rain,0,2012-11-22 22:56:00
7:56 PM,81.0,77.0,88,29.90,10.0,SW,3.5,-,0.00,,Scattered Clouds,230,2012-11-22 23:56:00
8:56 PM,81.0,77.0,88,29.91,10.0,SW,3.5,-,N/A,,Scattered Clouds,220,2012-11-23 00:56:00
9:56 PM,80.1,75.9,87,29.92,10.0,Calm,Calm,-,N/A,,Scattered Clouds,0,2012-11-23 01:56:00
10:56 PM,80.1,75.9,87,29.92,10.0,Calm,Calm,-,N/A,,Scattered Clouds,0,2012-11-23 02:56:00
11:56 PM,79.0,75.9,90,29.91,10.0,Calm,Calm,-,N/A,,Scattered Clouds,0,2012-11-23 03:56:00